EW7144 Weather Reports


time (UTC)temp
C
wind
direction
speed
KPH
gust
KPH
rain 1hr
cm
rain 24hr
cm
rain mn
cm
humidity
%
barometer
mb
20260508135407 16 350 27.4 56.3 0.00 4.85 0.00 80 998.3
20260508134906 16 1 25.7 41.8 0.00 4.85 0.00 80 998.3
20260508134406 16 350 25.7 41.8 0.00 4.85 0.00 79 998.2
20260508133906 16 359 25.7 45.1 0.00 4.88 0.00 80 998.2
20260508133406 16 355 24.1 41.8 0.00 4.88 0.00 81 998.1
20260508132907 16 346 24.1 56.3 0.00 4.93 0.00 81 998.2
20260508132406 16 352 20.9 48.3 0.00 4.98 0.00 82 998.0
20260508131906 16 348 19.3 46.7 0.00 5.00 0.00 82 998.1
20260508131406 16 354 20.9 37.0 0.00 5.03 0.00 82 998.0
20260508130906 16 355 20.9 40.2 0.00 5.03 0.00 82 998.2
20260508130407 16 333 20.9 35.4 0.00 5.03 0.00 82 998.2
20260508125906 16 352 20.9 38.6 2.62 5.05 0.00 81 998.1
20260508125406 16 355 24.1 38.6 2.62 5.08 0.00 81 998.2
20260508124907 16 355 19.3 41.8 2.62 5.13 0.00 81 998.3
20260508124406 16 0 24.1 41.8 2.62 5.13 0.00 81 998.4
20260508123906 16 358 25.7 40.2 2.62 5.16 0.00 80 998.5
20260508123406 16 350 20.9 40.2 2.62 5.16 0.00 79 998.5
20260508122906 16 340 25.7 48.3 2.62 5.18 0.00 79 998.5
20260508122406 16 0 25.7 45.1 2.62 5.21 0.00 81 998.6
20260508121906 17 357 22.5 46.7 2.62 5.21 0.00 82 998.5
20260508121407 17 352 19.3 38.6 2.62 5.23 0.00 82 998.5
20260508120907 17 347 19.3 33.8 2.62 5.23 0.00 82 998.5
20260508120407 17 350 17.7 35.4 2.62 5.23 0.00 82 998.6
20260508115906 17 346 16.1 33.8 0.00 4.70 2.62 82 998.5
20260508115406 17 358 19.3 41.8 0.00 4.70 2.62 82 998.6
20260508114906 17 358 20.9 41.8 0.00 4.70 2.62 82 998.6
20260508114406 17 353 22.5 37.0 0.00 4.72 2.62 82 998.8
20260508113907 17 340 20.9 35.4 0.00 4.72 2.62 82 998.7
20260508113406 17 356 20.9 35.4 0.00 4.75 2.62 82 998.8
20260508112906 17 348 20.9 37.0 0.00 4.75 2.62 82 999.0
20260508111906 16 346 20.9 33.8 0.00 4.75 2.62 82 999.1
20260508111409 16 348 16.1 32.2 0.00 4.75 2.62 82 999.1
20260508110406 16 354 16.1 37.0 0.00 4.75 2.62 81 999.3
20260508105406 17 359 19.3 41.8 0.00 4.78 2.62 81 999.5
20260508103907 16 344 14.5 32.2 0.03 4.85 2.62 81 999.5
20260508103406 16 352 19.3 29.0 0.03 4.90 2.62 81 999.6
20260508102407 16 350 20.9 37.0 0.03 4.93 2.62 81 999.8
20260508101406 16 355 20.9 37.0 0.03 4.98 2.62 82 999.8
20260508100907 16 350 22.5 41.8 0.03 5.03 2.62 83 999.8
20260508100406 16 344 20.9 38.6 0.03 5.05 2.62 84 999.8
20260508095406 16 346 16.1 38.6 0.03 5.11 2.62 85 999.7
20260508094906 16 347 17.7 33.8 0.03 5.16 2.62 85 999.7
20260508094406 16 349 19.3 59.5 0.03 5.18 2.62 86 999.8
20260508093906 16 357 20.9 35.4 0.00 5.21 2.59 87 999.7
20260508093406 16 357 17.7 37.0 0.00 5.23 2.59 87 999.7
20260508092906 16 342 16.1 33.8 0.00 5.26 2.59 87 999.7
20260508092406 16 350 22.5 40.2 0.00 5.28 2.59 87 999.7
20260508091906 16 338 20.9 41.8 0.00 5.28 2.59 86 999.5
20260508091406 16 345 19.3 35.4 0.00 5.31 2.59 85 999.5
20260508090907 16 351 25.7 46.7 0.00 5.31 2.59 87 999.7
20260508090407 16 344 19.3 41.8 0.00 5.33 2.59 87 999.6
20260508085906 16 345 25.7 45.1 0.00 5.33 2.59 88 999.6
20260508085406 16 357 12.9 32.2 0.00 5.36 2.59 88 999.3
20260508084906 16 0 22.5 51.5 0.00 5.41 2.59 88 999.4
20260508084407 16 356 25.7 49.9 0.00 5.44 2.59 88 999.4
20260508083406 16 20 27.4 38.6 0.00 5.49 2.59 88 999.7
20260508082906 16 16 17.7 41.8 0.00 5.49 2.59 88 999.6
20260508081906 16 11 20.9 38.6 0.00 5.51 2.59 88 999.9
20260508080906 16 15 22.5 41.8 0.00 5.54 2.59 89 999.9
20260508080406 16 12 22.5 41.8 0.00 5.56 2.59 89 1000.0
20260508075906 16 17 19.3 33.8 0.00 5.59 2.59 89 1000.2
20260508074907 16 9 14.5 29.0 0.00 5.64 2.59 89 1000.4
20260508074406 16 9 11.3 29.0 0.00 5.64 2.59 89 1000.5
20260508073906 16 3 16.1 33.8 0.00 5.66 2.59 89 1000.5
20260508073406 16 354 14.5 33.8 0.00 5.69 2.59 89 1000.7
20260508072908 16 348 14.5 32.2 0.00 5.69 2.59 89 1000.7
20260508072408 16 351 14.5 33.8 0.00 5.69 2.59 89 1000.7
20260508071906 16 10 20.9 40.2 0.00 5.69 2.59 89 1000.7
20260508065906 15 348 14.5 40.2 0.00 5.71 2.59 90 1000.8
20260508065407 15 342 14.5 32.2 0.00 5.71 2.59 90 1000.8
20260508064908 15 345 14.5 32.2 0.00 5.71 2.59 90 1000.7
20260508064407 15 347 16.1 29.0 0.03 5.71 2.59 90 1000.7
20260508063406 15 356 14.5 32.2 0.08 5.77 2.59 90 1000.5
20260508062906 15 346 20.9 41.8 0.08 5.79 2.59 90 1000.6
20260508062406 15 349 11.3 29.0 0.13 5.79 2.59 90 1000.7
20260508061906 15 345 14.5 32.2 0.15 5.79 2.59 90 1000.7
20260508061406 15 355 14.5 32.2 0.18 5.84 2.59 90 1000.8
20260508060907 15 351 11.3 24.1 0.23 5.87 2.59 90 1000.7
20260508060407 15 358 16.1 33.8 0.30 5.89 2.59 90 1000.7
20260508055907 15 356 14.5 27.4 0.33 5.94 2.59 90 1000.7
20260508055406 15 32 16.1 41.8 0.33 5.99 2.59 90 1000.7
20260508054907 15 13 22.5 40.2 0.41 6.05 2.59 90 1000.6
20260508053907 16 353 19.3 38.6 0.41 6.07 2.57 90 1000.7
20260508053406 16 2 19.3 40.2 0.36 6.07 2.51 91 1000.6
20260508052906 16 350 14.5 45.1 0.38 6.10 2.51 91 1000.7
20260508052407 16 14 35.4 62.8 0.36 6.07 2.49 91 1000.8
20260508051907 16 11 25.7 45.1 0.33 6.15 2.46 91 1000.6
20260508051406 16 1 27.4 61.2 0.33 6.12 2.41 91 1000.7
20260508050406 17 13 40.2 62.8 0.20 5.99 2.31 91 1000.6
20260508045906 16 7 32.2 59.5 0.15 5.97 2.26 90 1000.1
20260508045406 16 13 32.2 62.8 0.15 5.97 2.26 90 1000.8
20260508044907 16 15 32.2 61.2 0.13 5.92 2.21 90 1000.8
20260508044406 16 359 41.8 66.0 0.10 5.89 2.18 90 1000.5
20260508043907 17 6 25.7 59.5 0.08 5.87 2.16 90 1000.6
20260508043407 17 12 33.8 64.4 0.10 5.87 2.16 90 1000.7
20260508042406 16 18 32.2 69.2 0.08 5.84 2.11 90 1000.7
20260508041906 16 17 38.6 62.8 0.08 5.87 2.11 90 1000.8
20260508040906 16 15 32.2 53.1 0.08 5.84 2.11 90 1001.1
20260508035906 16 8 30.6 61.2 0.10 5.84 2.11 90 1001.4
20260508035406 16 8 40.2 66.0 0.10 5.84 2.11 90 1001.5
20260508034406 16 28 27.4 56.3 0.15 5.82 2.08 90 1001.5
20260508033906 16 16 33.8 56.3 0.20 5.82 2.08 90 1001.6
20260508032907 16 12 22.5 56.3 0.23 5.79 2.03 90 1002.0
20260508032406 16 13 33.8 57.9 0.23 5.79 2.03 90 1002.2
20260508031907 16 16 30.6 56.3 0.25 5.79 2.03 90 1002.5
20260508031406 16 4 27.4 41.8 0.25 5.77 2.03 90 1002.7
20260508030906 16 32 30.6 62.8 0.25 5.77 2.03 90 1002.9
20260508030406 16 11 33.8 56.3 0.25 5.77 2.03 90 1002.9
20260508025906 16 5 22.5 48.3 0.23 5.74 2.01 90 1002.8
20260508025406 16 16 19.3 48.3 0.25 5.74 2.01 90 1002.8
20260508024906 16 21 22.5 48.3 0.25 5.71 1.98 90 1003.0
20260508024406 16 22 16.1 32.2 0.23 5.69 1.93 90 1002.9
20260508023906 16 16 24.1 41.8 0.18 5.61 1.88 90 1003.2
20260508022906 16 16 16.1 35.4 0.13 5.56 1.83 89 1003.7
20260508021906 17 13 17.7 38.6 0.08 5.51 1.78 90 1004.1
20260508021406 17 18 20.9 48.3 0.05 5.51 1.75 89 1004.1
20260508020906 17 19 22.5 45.1 0.05 5.51 1.75 89 1004.4
20260508020407 17 16 20.9 53.1 0.05 5.51 1.75 89 1004.4
20260508015908 17 15 16.1 56.3 0.05 5.51 1.75 89 1004.5
20260508015407 17 14 20.9 56.3 0.05 5.49 1.75 89 1004.6
20260508014407 17 18 17.7 32.2 0.05 5.46 1.73 89 1005.0
20260508013908 17 23 11.3 57.9 0.03 5.44 1.70 89 1005.2
20260508013407 17 10 16.1 41.8 0.03 5.44 1.70 89 1005.3
20260508011907 17 14 19.3 37.0 0.03 5.44 1.70 89 1005.7
20260508011407 17 25 16.1 38.6 0.03 5.46 1.70 89 1005.8
20260508010908 17 4 16.1 40.2 0.03 5.49 1.70 89 1006.0
20260508010407 17 16 20.9 46.7 0.03 5.49 1.70 89 1006.2
20260508005906 17 13 19.3 41.8 0.03 5.49 1.70 89 1006.2
20260508005408 17 19 19.3 35.4 0.00 5.49 1.68 89 1006.4
20260508004907 17 19 16.1 29.0 0.00 5.49 1.68 89 1006.4
20260508004408 17 16 16.1 35.4 0.00 5.49 1.68 89 1006.6
20260508003907 17 24 20.9 53.1 0.00 5.49 1.68 89 1006.8
20260508003406 17 22 12.9 35.4 0.00 5.49 1.68 89 1007.0
20260508002406 17 15 22.5 41.8 0.00 5.49 1.68 90 1007.3
20260508001906 17 24 17.7 37.0 0.00 5.49 1.68 90 1007.4
20260508000906 17 18 16.1 48.3 0.00 5.49 1.68 90 1007.7
20260508000406 17 31 27.4 49.9 0.00 5.49 1.68 90 1007.9
20260507235906 17 11 12.9 29.0 0.00 5.49 1.68 90 1007.9
20260507234906 17 16 22.5 38.6 0.00 5.51 1.68 90 1008.0
20260507234406 17 18 19.3 38.6 0.03 5.54 1.68 90 1008.1
20260507233907 17 26 22.5 41.8 0.03 5.59 1.68 90 1008.2
20260507233406 17 8 27.4 56.3 0.03 5.59 1.68 90 1008.4
20260507232408 17 4 25.7 41.8 0.03 5.59 1.68 91 1008.4
20260507231406 17 4 25.7 41.8 0.03 5.59 1.68 91 1008.6
20260507230908 17 356 24.1 46.7 0.03 5.59 1.68 91 1008.8
20260507225906 17 13 27.4 40.2 0.03 5.59 1.68 91 1008.8
20260507225406 17 13 19.3 35.4 0.03 5.59 1.68 91 1008.7
20260507224908 17 15 16.1 33.8 0.03 5.59 1.68 91 1008.8
20260507224407 17 9 20.9 48.3 0.03 5.56 1.65 91 1008.9
20260507223408 17 14 25.7 49.9 0.05 5.56 1.65 91 1009.0
20260507222906 17 18 25.7 45.1 0.05 5.56 1.65 91 1009.1
20260507222406 17 0 27.4 48.3 0.05 5.56 1.65 91 1009.2
20260507221906 17 11 27.4 49.9 0.05 5.56 1.65 91 1009.2
20260507221406 17 20 32.2 48.3 0.05 5.56 1.65 91 1009.3
20260507220406 17 1 22.5 49.9 0.05 5.56 1.65 91 1009.4
20260507215906 17 11 25.7 46.7 0.05 5.56 1.65 91 1009.3
20260507214906 17 3 25.7 48.3 0.05 5.56 1.65 91 1009.4
20260507214406 17 12 32.2 57.9 0.03 5.54 1.65 92 1009.5
20260507213906 17 6 25.7 41.8 0.00 5.51 1.63 92 1009.7
20260507213406 17 24 27.4 45.1 0.00 5.51 1.63 92 1009.6
20260507212906 17 9 20.9 46.7 0.00 5.51 1.63 92 1009.6
20260507212406 17 17 25.7 46.7 0.00 5.51 1.63 92 1009.6
20260507211906 17 0 27.4 53.1 0.00 5.51 1.63 92 1009.7
20260507211406 17 8 20.9 40.2 0.00 5.51 1.63 92 1009.8
20260507210906 17 0 27.4 46.7 0.00 5.51 1.63 92 1009.8
20260507210406 17 357 17.7 37.0 0.00 5.51 1.63 92 1009.9
20260507205406 17 1 19.3 32.2 0.00 5.51 1.63 92 1010.0
20260507204906 17 19 17.7 46.7 0.00 5.51 1.63 92 1009.8
20260507204406 17 11 19.3 40.2 0.00 5.51 1.63 92 1009.8
20260507203906 17 8 11.3 40.2 0.00 5.51 1.63 92 1009.9
20260507203406 17 7 22.5 41.8 0.00 5.51 1.63 92 1009.8
20260507202407 17 346 11.3 27.4 0.00 5.51 1.63 92 1009.8
20260507201908 17 9 9.7 25.7 0.00 5.51 1.63 92 1009.7
20260507201406 17 11 12.9 33.8 0.00 5.51 1.63 92 1009.7
20260507200907 17 4 14.5 32.2 0.00 5.51 1.63 92 1009.7
20260507195407 17 358 11.3 33.8 0.03 5.51 1.63 92 1009.7
20260507194906 17 350 19.3 32.2 0.03 5.51 1.63 92 1009.7
20260507194407 17 0 9.7 24.1 0.08 5.51 1.63 92 1009.7
20260507193407 17 351 14.5 32.2 0.15 5.51 1.63 92 1009.6
20260507191406 17 8 9.7 29.0 0.23 5.51 1.63 92 1009.8
20260507190906 17 346 17.7 32.2 0.25 5.51 1.63 92 1009.8
20260507190406 17 339 19.3 29.0 0.25 5.51 1.63 92 1009.8
20260507185906 17 352 9.7 20.9 0.28 5.51 1.60 92 1009.7
20260507185406 17 341 11.3 27.4 0.33 5.51 1.60 92 1009.8
20260507184906 17 347 14.5 24.1 0.38 5.51 1.60 92 1009.9
20260507184406 17 346 12.9 29.0 0.38 5.44 1.55 92 1010.0
20260507183906 17 344 12.9 40.2 0.51 5.41 1.50 92 1010.2
20260507183407 17 351 14.5 32.2 0.66 5.36 1.45 92 1010.1
20260507182407 17 2 11.3 32.2 0.69 5.33 1.45 92 1010.2
20260507181907 17 340 14.5 27.4 0.69 5.31 1.42 92 1010.2
20260507181407 17 356 9.7 32.2 0.69 5.31 1.40 92 1010.3
20260507180908 17 353 16.1 27.4 0.64 5.26 1.37 92 1010.3
20260507180407 17 356 11.3 24.1 0.66 5.26 1.37 92 1010.4
20260507175907 17 12 14.5 33.8 0.66 5.23 1.32 92 1010.5
20260507175408 17 7 11.3 27.4 0.64 5.18 1.27 92 1010.4
20260507174906 17 3 16.1 32.2 0.61 5.13 1.22 92 1010.4
20260507174407 17 6 9.7 40.2 0.58 5.05 1.17 92 1010.5
20260507173907 17 354 8.0 24.1 0.46 4.90 0.99 92 1010.6
20260507173407 17 0 3.2 16.1 0.28 4.70 0.79 92 1010.5
20260507172907 17 0 11.3 25.7 0.28 4.67 0.79 92 1010.6
20260507171406 17 355 16.1 32.2 0.28 4.62 0.71 92 1010.9
20260507170407 17 354 12.9 32.2 0.25 4.60 0.71 92 1011.1
20260507165908 17 334 19.3 33.8 0.23 4.57 0.66 92 1011.1
20260507165406 17 343 9.7 27.4 0.23 4.55 0.64 92 1011.2
20260507164907 17 7 9.7 19.3 0.23 4.52 0.61 92 1011.2
20260507164408 17 341 16.1 32.2 0.18 4.47 0.58 92 1011.1
20260507163907 17 9 19.3 35.4 0.15 4.45 0.53 92 1011.1
20260507163407 17 9 11.3 35.4 0.13 4.42 0.51 92 1011.2
20260507162907 17 12 12.9 29.0 0.10 4.39 0.51 92 1011.1
20260507162406 17 6 16.1 35.4 0.08 4.37 0.48 92 1011.1
20260507161907 17 355 19.3 35.4 0.05 4.37 0.46 92 1011.1
20260507161407 17 340 17.7 32.2 0.05 4.34 0.43 92 1011.2
20260507160907 17 349 16.1 32.2 0.05 4.34 0.43 92 1011.2
20260507160406 17 350 14.5 29.0 0.05 4.34 0.43 92 1011.3
20260507155907 17 6 14.5 35.4 0.03 4.32 0.43 92 1011.4
20260507155406 17 352 14.5 33.8 0.03 4.32 0.43 92 1011.4
20260507154907 17 11 9.7 27.4 0.00 4.32 0.41 92 1011.4
20260507154407 17 351 11.3 25.7 0.00 4.32 0.41 92 1011.5
20260507153906 17 348 11.3 33.8 0.00 4.37 0.41 92 1011.5
20260507152908 17 353 11.3 37.0 0.00 4.39 0.41 92 1011.6
20260507152407 17 5 16.1 25.7 0.00 4.42 0.41 92 1011.7
20260507151907 17 0 19.3 40.2 0.00 4.47 0.41 92 1011.7
20260507150908 17 359 14.5 33.8 0.03 4.55 0.41 92 1011.9
20260507150407 17 23 12.9 32.2 0.03 4.55 0.41 92 1012.1
20260507145407 17 337 14.5 32.2 0.03 4.57 0.41 92 1012.3
20260507144907 17 1 11.3 25.7 0.03 4.57 0.41 92 1012.3
20260507144407 17 345 14.5 32.2 0.03 4.57 0.41 92 1012.5
20260507143907 17 11 12.9 35.4 0.05 4.57 0.41 92 1012.5
20260507143406 17 0 6.4 24.1 0.05 4.57 0.41 92 1012.5
20260507142906 17 353 12.9 32.2 0.10 4.57 0.41 92 1012.6
20260507142406 17 351 14.5 32.2 0.15 4.57 0.41 92 1012.7
20260507141906 17 20 11.3 32.2 0.15 4.57 0.41 92 1012.8
20260507141406 17 2 16.1 29.0 0.18 4.57 0.41 92 1012.8
20260507140906 17 12 14.5 25.7 0.18 4.55 0.38 92 1012.9
20260507140406 17 339 8.0 24.1 0.18 4.55 0.38 92 1012.9
20260507135907 17 0 9.7 29.0 0.20 4.55 0.38 92 1013.0